Hilo, HI

1:34 PM HST on January 18, 2017 (GMT -1000)
Hilo International

Weather History for PHTO - January, 2014

Change the Weather History Date:

Monday, January 6, 2014

  Actual Average Record
Temperature  
Mean Temperature 69 °F 72 °F  
Max Temperature 77 °F 79 °F 86 °F (1962)
Min Temperature 61 °F 64 °F 58 °F (1985)
Degree Days  
Heating Degree Days 0 0  
Month to date heating degree days 0 0  
Since 1 July heating degree days 0 0  
Cooling Degree Days 4 7  
Month to date cooling degree days 39 42  
Year to date cooling degree days 39 42  
Growing Degree Days 19 (Base 50)    
Moisture  
Dew Point 59 °F    
Average Humidity 71    
Maximum Humidity 87    
Minimum Humidity 54    
Precipitation  
Precipitation 0.14 in 0.28 in 4.52 in (1964)
Month to date precipitation 0.20 1.68  
Year to date precipitation 0.20 1.68  
Snow  
Snow 0.00 in - - ()
Month to date snowfall 0.0  
Since 1 July snowfall 0.0  
Snow Depth 0.00 in    
Sea Level Pressure  
Sea Level Pressure 30.00 in    
Wind  
Wind Speed 12 mph (NNW)    
Max Wind Speed 24 mph    
Max Gust Speed 35 mph    
Visibility 10 miles    
Events Rain    
T = Trace of Precipitation, MM = Missing Value Source: NWS Daily Summary

Daily Weather History Graph

Daily Weather History Graph

Search for Another Location

Airport or City:

Trip Planner

Search our weather history database for the weather conditions in past years. The results will help you decide how hot, cold, wet, or windy it might be!

Date:

Astronomy

Jan. 06, 2014 Rise Set
Actual Time 6:56 AM HST 5:56 PM HST
Civil Twilight 6:32 AM HST 6:20 PM HST
Nautical Twilight 6:05 AM HST 6:47 PM HST
Astronomical Twilight 5:38 AM HST 7:14 PM HST
Moon 11:09 AM HST (1/6) 11:44 PM HST (1/6)
Length of Visible Light 11h 47m
Length of Day
10h 59m
Waxing Crescent, 37% of the Moon is Illuminated
Jan 6
Waxing Crescent
Jan 7
First Quarter
Jan 15
Full
Jan 23
Last Quarter
Jan 30
New

Hourly Weather History & Observations

Time (HST) Temp. Dew Point Humidity Pressure Visibility Wind Dir Wind Speed Gust Speed Precip Events Conditions
12:53 AM 64.0 °F 57.9 °F 80% 29.97 in 10.0 mi WSW 5.8 mph - N/A   Clear
1:53 AM 61.0 °F 55.9 °F 83% 29.96 in 10.0 mi Calm Calm - N/A   Clear
2:53 AM 62.1 °F 54.0 °F 75% 29.95 in 10.0 mi West 5.8 mph - N/A   Partly Cloudy
3:53 AM 66.9 °F 57.9 °F 73% 29.95 in 10.0 mi NNW 12.7 mph - N/A   Clear
4:53 AM 66.9 °F 57.9 °F 73% 29.97 in 10.0 mi NW 8.1 mph - N/A   Clear
5:53 AM 66.9 °F 57.9 °F 73% 29.98 in 10.0 mi NNW 10.4 mph - N/A   Clear
6:53 AM 64.9 °F 55.9 °F 73% 30.00 in 10.0 mi WSW 5.8 mph - N/A   Partly Cloudy
7:53 AM 66.0 °F 57.0 °F 73% 30.02 in 10.0 mi West 4.6 mph - N/A   Scattered Clouds
8:53 AM 70.0 °F 61.0 °F 73% 30.04 in 10.0 mi NNW 17.3 mph - 0.00 in   Mostly Cloudy
9:53 AM 73.9 °F 59.0 °F 59% 30.04 in 10.0 mi North 16.1 mph - N/A   Scattered Clouds
10:53 AM 73.0 °F 60.1 °F 64% 30.02 in 10.0 mi North 20.7 mph 28.8 mph N/A   Scattered Clouds
11:53 AM 75.9 °F 59.0 °F 56% 30.00 in 10.0 mi North 17.3 mph - N/A   Scattered Clouds
12:53 PM 77.0 °F 61.0 °F 58% 29.98 in 10.0 mi North 13.8 mph - N/A   Scattered Clouds
1:53 PM 75.9 °F 61.0 °F 60% 29.97 in 10.0 mi North 16.1 mph 23.0 mph 0.00 in   Mostly Cloudy
2:53 PM 75.9 °F 57.9 °F 54% 29.96 in 10.0 mi North 15.0 mph 25.3 mph N/A   Scattered Clouds
3:53 PM 75.9 °F 57.9 °F 54% 29.95 in 10.0 mi North 18.4 mph - N/A   Partly Cloudy
4:53 PM 75.0 °F 59.0 °F 57% 29.98 in 10.0 mi North 18.4 mph 25.3 mph N/A   Scattered Clouds
5:53 PM 73.0 °F 57.0 °F 57% 30.00 in 10.0 mi North 18.4 mph 26.5 mph N/A   Clear
6:53 PM 71.1 °F 60.1 °F 68% 30.01 in 10.0 mi North 16.1 mph - N/A   Partly Cloudy
7:53 PM 70.0 °F 59.0 °F 68% 30.04 in 10.0 mi NNW 11.5 mph - 0.00 in   Scattered Clouds
8:53 PM 69.1 °F 57.0 °F 65% 30.06 in 10.0 mi WNW 11.5 mph - N/A   Clear
9:53 PM 68.0 °F 60.1 °F 76% 30.05 in 10.0 mi NW 5.8 mph - 0.00 in Rain Light Rain
10:53 PM 66.9 °F 63.0 °F 87% 30.05 in 8.0 mi North 9.2 mph 17.3 mph 0.14 in Rain Light Rain
11:53 PM 69.1 °F 60.1 °F 73% 30.04 in 10.0 mi North 8.1 mph - 0.00 in   Overcast